Location: Hope
(40.9110°N, 74.9680°W)
Time: 19:18:59
(UTC-05:00)

N. Korean satellite - Pass Details

Date: 29 January 2019
Orbit: 457 x 510 km, 97.2° (Epoch: 16 February)

Event Time Altitude Azimuth Distance (km) Brightness Sun altitude
Rises 17:43:56 0° 179° (S) 2,590 10.5 -6.3°
Reaches altitude 10° 17:46:03 10° 185° (S) 1,715 9.7 -6.6°
Maximum altitude 17:49:38 48° 261° (W) 669 7.8 -7.3°
Drops below altitude 10° 17:53:17 10° 337° (NNW) 1,737 9.5 -8.0°
Sets 17:55:27 0° 343° (NNW) 2,628 10.3 -8.3°
